Regional Weather Roundup
Issued by NWS Kansas City/Pleasant Hill, MO

Home | Current Version | Previous Version | Text Only | Print | Product List | Glossary On
Versions: 1 2 3 4 5 6 7 8 9 10 11 12 13 14 15 16 17 18 19 20 21 22 23 24 25 26 27 28 29 30 31 32 33 34 35 36 37 38 39 40 41 42 43 44 45 46 47 48 49 50
000
ASUS43 KEAX 312310
RWREAX

WEATHER ROUNDUP FOR EASTERN KANSAS AND NORTHWEST MISSOURI
NATIONAL WEATHER SERVICE KANSAS CITY/PLEASANT HILL MO
600 PM CDT WED AUG 31 2016

KSZ040-057-103>105-MOZ028-029-037-043-010000-
...KANSAS CITY METROPOLITAN AREA...

CITY           SKY/WX    TMP DP  RH WIND       PRES   REMARKS
K.C. INTL      MOSUNNY   80  64  58 NE13      30.09S
K.C. DOWNTOWN  CLOUDY    80  66  62 NE8       30.07S
LEES SUMMIT    CLOUDY    79  68  69 NE10      30.08F
OLATHE - IXD   PTSUNNY   78  69  73 N9        30.09S
OLATHE - OJC   CLOUDY    78  68  71 NE7       30.09S
LAWRENCE       MOSUNNY   78  68  71 NE9       30.07F

$$

MOZ001>008-011>017-020>025-030>033-038>040-044>046-053-054-010000-
...NORTHERN AND CENTRAL MISSOURI...

CITY           SKY/WX    TMP DP  RH WIND       PRES   REMARKS
ST. JOSEPH     MOSUNNY   76  60  57 NE6       30.10S
MOSBY          PTCLDY    79  64  61 N10       30.08S
WHITEMAN AFB   MOSUNNY   80  73  80 N8        30.05F
CLINTON        RAIN      75  73  94 N12       30.06S
SEDALIA        CLOUDY    77  70  79 E6        30.08R
WARSAW         NOT AVBL
CHILLICOTHE      N/A     79  60  52 N7        30.10S
KIRKSVILLE     CLOUDY    76  64  66 N8        30.10S

$$

MOZ041-047>049-056>058-063>065-088>090-097-010000-
...EASTERN AND SOUTHERN MISSOURI...

CITY           SKY/WX    TMP DP  RH WIND       PRES   REMARKS
ST. LOUIS INTL CLOUDY    77  66  68 NE5       30.03S
SPIRIT OF STL  CLOUDY    78  67  68 NE9       30.01S
COLUMBIA       CLOUDY    76  74  93 W3        30.06R
JEFFERSON CITY LGT RAIN  77  71  82 CALM      30.04S
ROLLA          CLOUDY    75  71  87 N6        30.04F
OSAGE BEACH    CLOUDY    74  72  93 N3        30.06S
SPRINGFIELD    LGT RAIN  75  68  78 N9        30.05S
BRANSON        PTSUNNY   81  72  74 N6        30.04S
JOPLIN         CLOUDY    73  70  90 NE6       30.04F
WEST PLAINS    MOSUNNY   81  70  69 N6        30.03F

$$

IAZ060-094-KSZ022-034>040-054-083-096-NEZ052-066-093-010000-
...KANSAS...SOUTHEAST NEBRASKA AND IOWA...

CITY           SKY/WX    TMP DP  RH WIND       PRES   REMARKS
TOPEKA         MOSUNNY   80  68  66 NE8       30.08S
MANHATTAN      CLOUDY    79  71  76 N7        30.09S
EMPORIA        PTSUNNY   76  70  82 NE8       30.08S
CHANUTE        MOSUNNY   78  70  76 NE7       30.07R
WICHITA        CLOUDY    83  68  60 NE8       30.07S
OMAHA          MOSUNNY   80  59  48 N10       30.14S
LINCOLN        SUNNY     80  59  48 NE10      30.15S
FALLS CITY     PTSUNNY   78  61  55 NE5       30.10F
LAMONI         SUNNY     75  61  61 NE8       30.12S
DES MOINES     PTSUNNY   79  57  46 NE12      30.12R

$$




USA.gov is the U.S. government's official web portal to all federal, state and local government web resources and services.